Regional Weather Roundup
Issued by NWS

Home | Current Version | Previous Version | Graphics & Text | Print | Product List | Glossary On
Versions: 1 2 3 4 5 6 7 8 9 10 11 12 13 14 15 16 17 18 19 20 21 22 23 24 25 26 27 28 29 30 31 32 33 34 35 36 37 38 39 40 41 42 43 44 45 46 47 48 49 50
000
ASUS43 KFSD 110802
RWRSD

WEATHER ROUNDUP FOR SOUTH DAKOTA
NATIONAL WEATHER SERVICE SIOUX FALLS SD
200 AM CST MON DEC 11 2017

NOTE: "FAIR" INDICATES FEW OR NO CLOUDS BELOW 12,000 FEET WITH NO
SIGNIFICANT WEATHER AND/OR OBSTRUCTIONS TO VISIBILITY.


SDZ001>005-009-010-012>017-110900-
NORTHWEST AND NORTH CENTRAL SOUTH DAKOTA

CITY           SKY/WX    TMP DP  RH WIND       PRES   REMARKS
BUFFALO          N/A     45  19  35 NW39G49   30.05S
FAITH            N/A     44  17  33 NW29G36   30.05R
MOBRIDGE       PTCLDY    41  23  48 NW21G28   29.90R
$$

SDZ012>016-024>037-041>051-057-063-072>074-110900-
SOUTHWEST AND SOUTH CENTRAL SOUTH DAKOTA

CITY           SKY/WX    TMP DP  RH WIND       PRES   REMARKS
RAPID CTY ARPT CLOUDY    52  15  23 NW38G51   30.14R
PIERRE         CLOUDY    46  20  35 NW22G29   29.96F
CUSTER         CLOUDY    43  11  27 NW17G31   30.17S
ELLSWORTH AFB  CLOUDY    52  15  23 NW32G44   30.13R
PHILIP         CLOUDY    49  17  28 NW23G31   30.06S
PINE RIDGE     CLOUDY    40  18  41 W8        30.18R
SPEARFISH      FAIR      46  16  29 NW21G33   30.22R
WINNER         FAIR      47  17  30 W16G25    30.01S
$$

SDZ004>011-016>023-039-040-110900-
NORTHEAST SOUTH DAKOTA

CITY           SKY/WX    TMP DP  RH WIND       PRES   REMARKS
ABERDEEN       CLOUDY    35  25  66 W9        29.80F WCI  28
WATERTOWN      CLOUDY    36  27  69 W13       29.81F
BROOKINGS      CLOUDY    36  25  64 W5        29.85F
SISSETON         N/A     41  27  57 NW15G21   29.76F
$$

SDZ017-020-022-023-036>040-048>070-110900-
SOUTHEAST SOUTH DAKOTA

CITY           SKY/WX    TMP DP  RH WIND       PRES   REMARKS
SIOUX FALLS    CLOUDY    34  26  72 CALM      29.88F
HURON          CLOUDY    32  25  75 W9        29.88F WCI  24
CHAMBERLAIN    CLEAR     40  22  47 W9        29.97F
MITCHELL       CLEAR     36  25  64 W12       29.92F
YANKTON        CLOUDY    39  21  48 W10       29.93F
$$

ABBREVIATIONS USED IN REMARKS
   TC - TEMPERATURE IN CELSIUS
  WCI - WIND CHILL INDEX
   HX - HEAT INDEX
  VSB - VISIBILITY




USA.gov is the U.S. government's official web portal to all federal, state and local government web resources and services.